This demonstration page uses our WeatherBlox Daily Observations layout. Learn more.

Hourly Observations for May 31, 2015

Temp ( °F °C ) Dew Point ( °F °C ) Humidity (%) Winds ( mph kmh ) Pressure ( in mb ) Visibility ( mi km ) Precip ( " mm )
12:15 am 00:15 Clear 50 10.2 40 4.5 68 68 E 8 13 30.21 1023 10 16.0934 0 0
12:35 am 00:35 Clear 49 9.5 40 4.5 71 71 ENE 3 6 30.21 1023 10 16.0934 0 0
12:55 am 00:55 Clear 48 9.1 40 4.5 73 73 ENE 5 7 30.21 1023 10 16.0934 0 0
1:15 am 01:15 Clear 49 9.2 40 4.5 73 73 ENE 3 6 30.21 1023 10 16.0934 0 0
1:35 am 01:35 Clear 49 9.2 40 4.5 73 73 Calm 30.21 1023 10 16.0934 0 0
1:55 am 01:55 Clear 47 8.5 40 4.4 76 76 Calm 30.21 1023 10 16.0934 0 0
2:15 am 02:15 Clear 46 7.6 40 4.4 80 80 N 3 6 30.21 1023 10 16.0934 0 0
2:35 am 02:35 Clear 47 8.1 40 4.5 78 78 Calm 30.21 1023 10 16.0934 0 0
2:55 am 02:55 Clear 44 6.8 39 4 83 83 Calm 30.24 1024 10 16.0934 0 0
3:15 am 03:15 Clear 44 6.8 38 3.5 80 80 ENE 3 6 30.24 1024 10 16.0934 0 0
3:35 am 03:35 Clear 44 6.5 38 3.5 81 81 E 5 7 30.24 1024 10 16.0934 0 0
3:55 am 03:55 Clear 45 7.2 39 4 80 80 E 6 9 30.24 1024 10 16.0934 0 0
4:15 am 04:15 Clear 45 7.2 39 4 80 80 ESE 5 7 30.21 1023 10 16.0934 0 0
4:35 am 04:35 Clear 44 6.8 39 3.7 81 81 ESE 6 9 30.21 1023 10 16.0934 0 0
4:55 am 04:55 Clear 43 6.1 38 3.5 84 84 ESE 6 9 30.18 1022 10 16.0934 0 0
5:15 am 05:15 Clear 42 5.4 38 3.1 85 85 ESE 3 6 30.21 1023 10 16.0934 0 0
5:35 am 05:35 Clear 44 6.5 39 3.7 83 83 Calm 30.21 1023 10 16.0934 0 0
5:55 am 05:55 Clear 43 5.9 37 3 82 82 ESE 6 9 30.18 1022 10 16.0934 0 0
6:15 am 06:15 Sunny 41 5.1 38 3.1 87 87 ESE 7 11 30.18 1022 10 16.0934 0 0
6:35 am 06:35 Sunny 44 6.4 39 4 85 85 ESE 10 17 30.18 1022 10 16.0934 0 0
6:55 am 06:55 Sunny 46 7.6 40 4.6 82 82 ESE 7 11 30.15 1021 10 16.0934 0 0
7:15 am 07:15 Sunny 47 8.4 41 5.1 80 80 ESE 8 13 30.15 1021 10 16.0934 0 0
7:35 am 07:35 Sunny 49 9.4 42 5.4 76 76 SE 7 11 30.15 1021 10 16.0934 0 0
7:55 am 07:55 Sunny 51 10.8 43 6.1 73 73 SE 9 15 30.12 1020 10 16.0934 0 0
8:15 am 08:15 Sunny 54 12.4 46 7.5 72 72 SSE 10 17 30.12 1020 10 16.0934 0 0
8:35 am 08:35 Sunny 56 13.6 47 8.6 72 72 SSE 12 19 30.09 1019 10 16.0934 0 0
8:55 am 08:55 Sunny 58 14.6 49 9.3 71 71 SSE 12 19 30.09 1019 10 16.0934 0 0
9:15 am 09:15 Sunny 60 15.7 49 9.6 67 67 SSE 15 24 30.09 1019 10 16.0934 0 0
9:35 am 09:35 Sunny 60 15.8 49 9.3 66 66 SSE 16 26 30.09 1019 10 16.0934 0 0
9:55 am 09:55 Sunny 62 16.4 48 8.8 61 61 SSE 13 20 30.09 1019 10 16.0934 0 0
10:15 am 10:15 Sunny 60 15.7 48 8.8 64 64 SSE 14 22 30.09 1019 10 16.0934 0 0
10:35 am 10:35 Sunny 63 17.2 48 9 59 59 SSE 16 26 30.09 1019 10 16.0934 0 0
10:55 am 10:55 Sunny 63 17.1 48 8.9 59 59 S 15 24 30.09 1019 10 16.0934 0 0
11:15 am 11:15 Sunny 64 18 47 8.5 54 54 SSE 13 20 30.06 1018 10 16.0934 0 0
11:35 am 11:35 Sunny 65 18.1 48 9 56 56 SSE 16 26 30.06 1018 10 16.0934 0 0
11:55 am 11:55 Sunny 65 18.4 48 8.7 53 53 SSE 14 22 30.06 1018 10 16.0934 0 0
12:15 pm 12:15 Sunny 67 19.4 48 9.1 52 52 S 12 19 30.06 1018 10 16.0934 0 0
12:35 pm 12:35 Sunny 67 19.5 49 9.4 52 52 SSE 14 22 30.06 1018 10 16.0934 0 0
12:55 pm 12:55 Sunny 69 20.3 49 9.2 49 49 S 9 15 30.06 1018 10 16.0934 0 0
1:15 pm 13:15 Sunny 69 20.7 49 9.6 49 49 S 12 19 30.03 1017 10 16.0934 0 0
1:35 pm 13:35 Sunny 70 20.9 49 9.6 49 49 SSE 14 22 30 1016 10 16.0934 0 0
1:55 pm 13:55 Sunny 71 21.6 51 10.4 49 49 SE 16 26 30 1016 10 16.0934 0 0
2:15 pm 14:15 Sunny 70 21.3 49 9.6 47 47 S 14 22 30 1016 10 16.0934 0 0
2:35 pm 14:35 Sunny 72 22.1 49 9.7 45 45 SSE 18 30 30 1016 10 16.0934 0 0
2:55 pm 14:55 Sunny 71 21.9 50 9.9 47 47 SE 16 26 29.97 1015 10 16.0934 0 0
3:15 pm 15:15 Sunny 72 22 50 9.8 46 46 SSE 17 28 29.97 1015 10 16.0934 0 0
3:35 pm 15:35 Sunny 70 21.1 49 9.5 48 48 SSE 15 24 29.97 1015 10 16.0934 0 0
3:55 pm 15:55 Sunny 72 22 50 9.8 46 46 SSE 17 28 29.97 1015 10 16.0934 0 0
4:15 pm 16:15 Sunny 72 22.4 50 9.8 45 45 SSE 15 24 29.97 1015 10 16.0934 0 0
4:35 pm 16:35 Sunny 72 22 50 9.9 46 46 SE 20 31 29.94 1014 10 16.0934 0 0
4:55 pm 16:55 Partly Cloudy 71 21.8 49 9.4 45 45 S 17 28 29.94 1014 10 16.0934 0 0
5:15 pm 17:15 Partly Cloudy 73 22.5 49 9.6 44 44 SSE 15 24 29.94 1014 10 16.0934 0 0
5:35 pm 17:35 Sunny 72 22.3 49 9.6 45 45 SE 15 24 29.94 1014 10 16.0934 0 0
5:55 pm 17:55 Sunny 72 22.2 50 10 46 46 SE 16 26 29.94 1014 10 16.0934 0 0
6:15 pm 18:15 Sunny 72 22.1 50 10 46 46 SSE 16 26 29.94 1014 10 16.0934 0 0
6:35 pm 18:35 Sunny 72 22.1 51 10.3 47 47 SSE 16 26 29.94 1014 10 16.0934 0 0
7:15 pm 19:15 Partly Cloudy 69 20.8 50 10.1 51 51 S 15 24 29.97 1015 10 16.0934 0 0
7:35 pm 19:35 Mostly Cloudy 69 20.6 51 10.4 52 52 SSE 16 26 29.97 1015 10 16.0934 0 0
7:55 pm 19:55 Cloudy 69 20.5 51 10.6 53 53 SSE 15 24 29.97 1015 10 16.0934 0 0
8:15 pm 20:15 Cloudy 68 20.1 52 11.1 56 56 SE 15 24 30 1016 10 16.0934 0 0
8:35 pm 20:35 Cloudy 67 19.6 52 11.3 59 59 SE 14 22 30 1016 10 16.0934 0 0
8:55 pm 20:55 Cloudy 67 19.3 52 11.2 60 60 SE 14 22 30 1016 10 16.0934 0 0
9:15 pm 21:15 Cloudy 66 18.9 52 11.1 61 61 SE 15 24 30 1016 10 16.0934 0 0
9:35 pm 21:35 Partly Cloudy 65 18.2 52 11 63 63 SE 15 24 30 1016 10 16.0934 0 0
9:55 pm 21:55 Clear 64 17.6 52 11 65 65 SE 15 24 30.03 1017 10 16.0934 0 0
10:15 pm 22:15 Clear 63 17.2 52 11.1 68 68 SSE 15 24 30.03 1017 10 16.0934 0 0
10:35 pm 22:35 Clear 63 17.1 52 11 68 68 SE 14 22 30.03 1017 10 16.0934 0 0
10:55 pm 22:55 Clear 62 16.7 52 11 69 69 SE 15 24 30.03 1017 10 16.0934 0 0
11:15 pm 23:15 Clear 62 16.5 52 11 70 70 SSE 16 26 30.03 1017 10 16.0934 0 0
11:35 pm 23:35 Clear 61 16.1 52 11.1 72 72 SSE 13 20 30.06 1018 10 16.0934 0 0
11:55 pm 23:55 Clear 61 16 52 11.1 73 73 SE 13 20 30.06 1018 10 16.0934 0 0

Powered by AerisWeather